Wind_Speed
42 38 34 34 36 41 42 40 40 39 36 33 30 30 32 33 36 35 29 26 25 26 30 31 33 34 32 34 34 30 27 28 29 29 29 31 33 35 36 37 36 35 31 26 25 24 23 23 22 23 23 22 22 22 21 21 22 23 23 23 21 20 20 21 21 21 22 23 23 23 24 24 24 25 26 26 26 26 26 25 26 26 25 25 24 22
43 46 45 38 33 33 35 38 39 38 39 37 31 30 32 33 35 33 26 22 22 27 32 31 32 34 32 34 36 33 28 27 27 27 28 30 31 33 35 36 35 34 30 27 25 24 24 23 23 23 24 23 22 22 22 22 23 24 24 24 23 22 22 21 21 22 23 23 24 24 25 25 25 26 26 26 26 26 26 26 27 27 26 26 25 24
37 48 56 50 42 36 32 34 37 38 38 38 35 30 29 32 32 30 27 24 23 25 30 31 33 35 35 35 37 36 31 29 27 27 27 27 29 30 32 32 32 30 28 27 26 24 23 22 22 23 24 25 24 23 23 23 24 25 26 25 24 23 23 22 23 24 24 24 25 26 26 26 26 26 25 25 25 24 23 24 25 27 27 27 26 26
37 48 58 54 48 44 40 36 36 38 39 39 38 34 33 32 29 28 28 27 27 26 25 28 32 35 35 35 38 39 35 32 30 28 27 28 29 30 30 30 30 29 28 28 28 27 26 25 25 24 25 26 27 26 25 25 26 27 28 27 26 25 24 24 25 25 25 26 27 27 27 27 27 26 25 24 23 21 20 21 22 24 26 27 28 28
44 48 48 43 41 43 42 39 36 36 39 40 40 41 41 38 33 31 28 27 30 30 26 23 28 35 37 35 37 36 34 33 31 30 30 30 30 29 29 30 30 31 30 30 30 29 27 26 26 26 26 27 28 29 28 28 29 29 29 29 29 27 26 26 26 27 27 28 28 28 28 28 27 26 25 23 21 18 18 18 20 22 25 27 28 29
45 45 41 37 38 39 39 38 37 36 39 40 41 43 43 40 37 34 31 26 24 25 25 19 16 22 27 31 35 35 33 32 27 25 24 21 21 22 23 25 25 25 26 27 27 26 26 25 25 25 26 28 29 30 30 30 31 31 30 30 30 29 28 28 28 28 29 29 29 30 29 28 27 27 26 24 21 19 18 18 19 22 24 25 27 29
41 41 40 37 36 36 36 37 37 37 38 36 39 42 39 38 36 32 29 24 19 18 18 16 12 13 17 19 21 22 27 28 22 19 19 19 21 23 26 26 26 26 27 27 26 26 26 27 26 26 26 27 28 29 30 31 32 32 31 31 31 30 30 29 30 30 30 30 30 30 30 29 29 28 26 25 24 23 22 21 21 22 24 25 26 27
41 40 40 38 37 37 38 39 37 37 37 33 34 37 35 37 37 33 29 24 22 20 15 15 15 18 22 22 19 19 24 28 27 28 29 30 31 32 33 32 33 33 29 23 22 22 24 24 24 24 24 26 27 28 29 30 32 33 33 32 31 31 30 30 31 31 31 30 30 30 30 30 30 29 27 27 27 27 26 25 25 26 26 27 27 27
43 44 43 41 40 39 39 39 36 33 34 33 32 31 31 33 35 35 31 26 23 18 16 20 17 13 19 22 23 22 25 29 33 35 34 31 29 27 27 27 27 23 15 13 16 18 19 20 20 21 22 24 26 28 29 31 32 32 32 32 32 31 31 31 32 32 32 31 30 30 30 30 30 30 29 29 30 30 30 30 29 30 30 29 29 28
40 41 40 40 42 40 37 34 33 33 35 36 31 25 24 26 27 27 25 25 22 15 19 25 21 13 14 19 22 21 22 25 27 29 28 25 22 20 20 22 19 10 8 14 19 18 18 18 18 21 23 24 25 27 29 30 31 32 32 32 32 31 31 32 33 33 32 32 31 31 30 30 30 31 32 32 32 32 33 33 33 33 32 31 30 30
38 34 33 36 38 38 35 31 29 31 35 38 33 24 22 23 24 19 17 21 17 12 26 32 26 19 10 10 14 14 15 16 16 18 21 20 19 20 22 23 19 12 13 19 22 21 19 17 19 23 24 23 24 25 27 29 30 31 31 31 31 30 31 32 32 32 32 31 32 31 31 30 30 32 34 34 34 34 36 36 35 35 34 32 31 30
38 33 33 36 35 34 35 33 29 27 30 33 29 23 17 14 15 11 10 15 9 8 23 26 24 23 15 10 9 8 11 13 13 13 12 14 18 20 19 17 14 13 15 19 20 19 17 18 21 23 23 22 22 24 26 27 29 30 31 31 31 30 31 32 33 33 33 32 32 32 31 31 31 32 34 35 36 36 37 37 36 36 35 34 32 31
42 41 38 36 35 37 38 37 31 27 30 30 27 22 12 4 4 5 4 6 4 8 17 17 15 18 22 28 28 24 26 24 22 19 16 18 21 19 15 12 12 13 15 20 21 20 21 22 23 21 20 21 20 21 23 25 26 28 29 30 31 31 31 32 33 33 33 33 32 32 32 32 32 33 35 35 36 37 37 37 37 37 36 35 33 32
33 35 38 37 36 39 42 43 40 37 39 40 40 35 21 7 2 2 2 0 1 8 16 15 12 10 16 29 32 26 22 18 17 14 14 18 17 13 14 15 17 17 17 19 20 20 23 23 20 19 20 20 19 19 19 20 22 24 26 28 29 30 31 31 32 33 33 32 31 31 31 31 32 34 35 36 37 37 38 39 39 39 39 39 37 34
25 22 33 41 40 41 46 48 47 44 42 42 43 40 31 18 7 3 4 3 3 6 10 10 8 7 8 11 13 9 6 6 12 13 14 18 15 12 17 22 23 19 14 12 13 17 21 20 19 18 19 20 20 20 19 19 19 20 22 24 26 28 30 31 32 32 33 32 31 31 30 29 30 31 32 33 34 35 36 37 38 39 39 40 39 37
31 23 29 39 41 42 45 46 46 42 35 33 34 34 32 28 21 11 6 8 7 4 6 9 8 9 10 9 8 6 3 6 14 16 18 16 14 15 19 22 22 18 13 11 13 19 22 21 19 18 19 20 20 20 20 19 19 19 20 22 24 26 28 29 31 32 33 33 33 32 31 30 30 30 30 30 30 31 32 33 35 35 35 36 36 36
31 25 29 35 35 39 40 39 42 40 31 28 31 33 32 30 28 18 7 8 8 3 8 13 15 19 20 23 26 23 20 18 13 8 7 5 6 11 12 12 14 15 15 15 17 21 22 20 20 19 18 18 19 19 19 20 20 19 20 21 22 24 26 27 29 31 32 33 33 33 33 33 33 33 33 32 32 32 32 33 34 34 34 35 35 36
32 26 31 36 33 36 34 28 32 37 33 29 29 33 30 23 25 21 7 4 6 4 10 18 25 25 20 26 40 41 37 29 12 3 4 5 4 4 6 9 9 11 13 16 19 20 19 19 18 19 18 18 19 18 19 19 19 19 20 20 21 22 24 25 27 28 30 32 33 33 34 34 35 35 35 35 34 34 35 35 34 35 35 35 35 36
35 23 23 34 34 31 29 26 29 34 36 33 28 28 26 17 17 23 13 5 7 4 4 11 21 24 25 33 44 45 39 29 20 14 13 19 17 12 11 11 9 11 13 15 16 15 16 17 17 17 18 20 20 19 18 18 18 19 19 20 21 22 23 24 25 26 27 29 31 32 33 34 35 36 36 36 35 36 36 36 35 36 36 35 35 36
39 26 18 29 33 27 29 34 38 38 36 35 29 27 30 24 19 26 25 15 9 5 3 6 8 15 31 42 43 41 38 31 29 30 28 27 26 24 20 15 13 15 14 14 15 15 16 17 18 19 20 21 21 20 19 18 18 19 19 19 20 21 22 23 24 25 26 27 29 30 31 33 34 35 36 36 36 36 36 36 36 37 37 36 36 36
38 32 23 25 28 30 35 39 43 44 41 39 35 33 36 31 20 18 24 22 11 3 2 3 2 14 31 37 31 30 29 23 21 21 18 16 20 24 22 19 19 18 17 18 19 18 19 21 23 24 22 21 22 23 22 21 20 20 20 20 21 22 23 23 24 25 26 27 28 29 30 31 32 34 35 35 36 36 35 35 36 37 37 38 38 37
39 37 31 28 31 35 39 40 43 45 44 44 44 43 43 39 27 12 10 20 21 11 8 6 5 20 32 28 23 22 18 12 9 5 6 10 15 19 19 20 21 21 21 22 22 22 24 27 28 26 23 21 22 25 25 25 24 23 22 22 22 23 23 23 24 25 26 28 29 30 30 30 31 32 33 34 35 36 36 36 36 37 38 39 39 39
44 38 33 30 35 37 34 36 38 39 41 44 44 44 43 41 37 24 11 20 28 22 17 11 6 23 36 28 23 22 14 10 12 10 6 7 12 17 19 21 22 22 24 24 25 27 29 31 31 27 23 22 24 26 26 26 26 26 26 26 26 26 26 26 26 25 26 27 29 31 32 33 33 33 33 33 34 35 36 37 38 38 39 40 40 40
43 37 32 27 29 35 32 32 36 36 37 41 41 43 42 40 42 36 24 26 31 28 23 11 5 24 36 27 24 25 18 15 17 18 15 12 15 18 20 23 23 23 24 24 25 28 31 33 31 26 23 23 25 26 27 27 28 28 29 29 29 29 29 29 29 29 28 28 28 29 31 33 34 35 35 35 35 35 35 36 38 39 40 40 40 40
42 35 34 23 12 19 22 21 26 32 36 41 42 43 44 43 43 38 31 28 25 29 32 15 6 24 28 18 21 25 23 23 22 24 26 24 22 22 22 24 24 23 23 22 23 25 28 30 29 26 25 26 26 27 27 28 29 30 31 32 32 33 32 32 32 33 33 32 31 31 31 32 34 35 36 37 37 37 36 37 37 39 40 40 41 40
45 36 38 29 13 11 17 20 30 40 43 44 45 46 46 46 47 42 34 26 18 24 34 22 14 24 22 15 19 19 18 22 23 26 31 31 28 27 27 26 25 25 24 25 26 28 29 30 29 29 29 29 30 30 30 30 31 32 32 33 35 36 36 36 36 35 36 36 36 35 34 34 34 34 35 35 36 37 37 37 38 38 39 40 41 41
48 41 43 42 34 33 33 33 41 47 47 44 44 47 48 47 48 42 32 27 23 24 30 30 28 28 23 20 23 20 17 18 19 21 26 30 29 27 27 26 25 26 26 28 30 31 31 31 31 31 32 32 33 34 34 34 34 35 35 36 36 38 39 40 40 39 39 39 39 39 38 38 37 36 36 36 36 36 36 37 37 38 39 40 41 41
49 45 47 49 46 43 37 32 35 42 47 48 48 49 49 46 46 43 36 35 35 27 23 30 36 32 27 23 22 23 23 23 22 21 22 26 28 26 26 27 27 28 30 32 32 31 32 32 32 33 34 34 34 35 36 37 38 39 40 40 40 41 41 41 42 43 43 43 43 42 41 41 40 40 39 39 38 38 38 37 37 38 39 40 40 40
47 44 47 50 46 42 36 29 29 36 44 48 48 48 49 47 46 47 45 45 42 32 26 31 37 36 30 23 19 20 23 25 26 25 26 28 30 30 30 30 32 33 34 33 33 33 33 33 34 35 36 37 37 38 38 39 41 42 43 44 44 44 43 43 44 45 45 46 45 45 44 44 43 43 42 42 41 40 40 39 38 38 39 39 40 40
47 43 43 43 42 41 38 30 24 27 37 44 45 45 47 48 48 48 47 45 42 39 37 34 35 36 31 24 22 22 24 26 27 27 29 31 31 31 30 31 32 32 33 33 34 35 35 36 38 39 40 40 40 40 40 40 42 44 45 47 47 46 45 45 45 45 46 46 47 46 46 46 45 45 44 43 43 42 41 41 41 40 39 40 41 41
46 43 42 40 38 38 38 32 26 25 31 37 40 41 43 45 46 46 45 44 43 44 42 38 38 40 33 28 28 26 26 28 28 28 30 31 31 30 29 30 31 32 34 35 36 38 39 39 41 41 40 40 39 39 40 42 43 44 46 47 48 48 48 47 47 46 46 47 47 47 47 47 46 46 44 43 43 43 43 42 42 42 41 41 41 42
47 42 40 38 32 30 32 28 25 27 28 32 38 41 42 42 43 43 43 42 43 43 42 42 43 40 33 30 30 26 25 27 28 29 30 29 30 30 30 31 33 34 36 37 38 40 41 42 42 42 40 40 39 38 39 41 43 44 45 46 47 48 48 49 49 48 47 47 47 47 47 46 46 46 44 43 42 43 43 43 43 43 43 43 43 43
49 42 37 36 29 27 29 25 22 24 22 25 35 40 39 40 41 41 42 41 40 42 43 43 41 35 30 30 29 25 24 26 28 28 30 30 30 31 33 35 36 37 38 39 40 41 41 42 42 41 41 41 41 41 40 40 41 42 43 44 45 46 47 48 49 50 50 49 48 48 48 47 47 45 44 42 41 41 41 42 43 44 45 46 45 44
48 42 36 34 27 23 28 28 20 14 9 13 30 37 36 38 40 42 44 43 40 42 43 41 38 33 30 30 28 26 28 29 29 30 32 32 32 33 35 36 37 38 38 38 39 40 40 41 42 41 41 40 41 41 42 42 41 41 41 42 43 44 45 47 48 49 50 49 49 49 48 48 48 46 43 42 41 40 39 40 41 43 45 47 47 46
43 41 34 31 27 21 26 26 13 6 9 15 26 33 33 34 38 39 40 39 38 39 41 40 38 34 31 31 29 29 31 31 31 33 34 34 34 33 34 35 35 36 37 37 38 38 39 40 41 41 41 40 40 40 40 41 42 42 42 42 42 43 43 44 46 47 47 48 47 47 47 47 47 45 43 42 41 40 39 39 40 41 42 44 46 47
32 33 29 28 25 18 19 20 9 7 16 21 23 28 31 33 36 37 37 38 38 37 36 36 36 34 32 32 31 31 32 33 34 35 35 36 36 34 33 34 34 35 35 36 36 37 38 39 40 41 42 42 42 41 41 41 41 42 43 43 43 42 42 43 43 44 44 45 44 44 44 45 45 44 43 41 41 40 40 39 39 40 40 41 42 43
27 26 25 24 22 17 17 21 17 10 14 24 30 34 38 40 39 38 38 39 38 37 38 38 36 36 34 32 32 31 30 31 33 35 36 36 36 35 35 34 34 34 34 34 35 36 36 37 38 39 40 41 41 42 42 41 42 42 43 43 43 43 42 42 42 42 41 41 41 41 41 41 42 42 42 41 41 41 40 39 39 39 39 40 41 41
26 25 26 24 22 22 19 16 13 7 13 30 39 39 39 38 36 34 33 37 39 36 36 36 34 32 31 29 29 28 26 27 32 36 35 34 34 35 35 33 32 32 32 33 34 35 35 35 36 37 38 39 39 40 41 42 43 43 43 44 44 43 43 42 42 41 39 38 37 37 36 36 37 38 39 39 39 39 39 38 37 37 37 38 39 39
26 25 27 26 23 24 22 14 8 11 23 36 37 33 29 28 29 26 24 34 43 35 30 31 30 28 29 27 26 24 24 29 33 33 30 30 30 32 32 33 33 33 33 33 33 34 35 35 36 37 38 39 40 40 41 42 42 43 43 43 42 42 43 42 41 39 37 36 34 34 34 33 34 34 36 36 36 36 36 36 36 36 36 36 36 36
29 27 28 30 28 28 27 19 15 21 30 33 28 22 19 20 21 19 16 28 37 27 23 26 23 21 22 20 20 21 23 28 30 27 27 28 30 32 34 34 34 34 33 33 33 34 35 36 36 37 38 39 40 41 42 43 43 43 42 40 39 39 39 39 38 37 35 34 34 33 33 33 32 33 34 34 35 35 35 36 36 36 36 36 36 36
31 30 30 32 31 28 27 23 21 26 32 33 26 18 14 15 21 24 22 26 22 13 14 17 15 16 18 17 19 22 23 25 27 26 27 29 30 32 33 33 33 34 33 34 35 35 36 36 36 37 37 36 36 37 39 41 41 40 38 36 36 35 34 34 35 34 34 34 35 35 34 33 33 33 33 34 34 34 35 35 36 36 36 36 36 36
32 31 31 33 31 29 28 24 19 24 34 34 23 15 15 21 28 29 29 26 20 19 19 16 14 17 18 18 20 21 21 22 24 25 26 27 29 31 32 33 34 35 35 36 35 35 34 34 34 35 34 34 34 34 35 36 36 36 35 34 33 33 32 32 32 32 33 35 37 37 36 35 34 33 33 33 33 33 33 34 35 35 36 36 36 36
36 31 29 34 33 26 23 18 12 20 34 33 22 20 24 27 26 26 26 23 21 21 17 13 13 15 16 17 18 18 20 21 23 25 27 28 29 31 32 33 34 34 34 33 32 32 32 33 33 33 33 32 32 32 32 32 33 33 34 34 35 35 36 36 35 35 36 38 40 40 37 34 33 33 32 32 31 31 31 32 33 34 34 35 36 36
37 34 32 36 36 29 25 24 22 25 28 24 19 20 22 23 21 19 18 17 16 14 12 13 15 15 17 19 19 20 22 23 24 26 27 28 29 30 30 31 31 31 31 31 31 32 32 33 34 33 31 30 29 29 29 30 31 31 32 34 35 36 37 38 38 38 39 40 42 43 41 35 31 30 29 29 30 30 31 31 31 32 32 32 33 34
35 38 36 36 37 36 35 36 35 29 22 15 13 13 14 16 16 14 15 15 14 15 16 18 19 20 23 24 24 25 25 25 25 26 26 27 27 27 28 30 31 31 32 33 33 33 33 33 33 31 30 28 27 27 28 28 29 29 30 31 32 33 33 34 33 33 33 33 34 36 36 35 32 29 27 26 27 28 30 31 31 30 30 30 30 30
29 32 34 33 32 33 36 38 37 33 26 18 15 15 16 18 18 19 19 19 18 20 22 24 26 28 28 27 27 27 25 24 25 25 25 26 26 27 29 31 32 34 34 34 34 33 32 32 30 29 28 28 27 28 28 28 28 28 28 29 29 30 31 31 31 30 30 30 30 29 30 31 32 31 29 28 29 29 29 30 30 30 30 30 30 30
27 26 28 30 29 28 31 33 34 35 32 27 24 25 25 22 21 22 23 24 25 27 29 30 30 29 28 26 25 23 23 23 23 23 25 26 26 27 29 30 31 32 33 33 33 33 33 32 30 28 27 27 27 27 28 30 30 30 30 30 30 30 31 31 32 32 32 32 32 31 31 31 31 31 30 31 32 32 32 32 32 32 32 32 33 32
27 24 24 28 31 31 31 30 29 31 32 32 31 31 30 29 28 28 29 29 30 31 31 31 29 27 26 24 22 21 21 22 22 24 25 26 27 27 27 27 28 29 30 32 33 33 33 33 32 31 30 29 29 29 31 32 33 33 33 34 34 34 34 34 34 35 35 36 36 36 35 35 34 34 34 34 34 34 35 35 35 35 35 36 37 37
28 27 28 30 32 34 34 32 31 30 29 30 32 32 33 34 34 33 33 32 31 30 30 29 27 25 23 22 22 22 23 23 25 26 26 27 27 27 27 28 28 29 30 32 32 33 34 34 34 34 33 32 32 33 34 36 37 37 37 37 37 37 37 37 38 38 39 39 39 39 39 38 37 38 37 37 37 37 38 39 39 40 40 40 41 41
28 29 30 30 30 33 33 32 31 31 29 30 32 32 31 31 30 30 30 29 29 30 29 27 26 24 24 24 24 24 25 26 27 27 28 29 29 30 31 32 32 32 33 34 35 36 36 37 38 38 37 36 36 37 38 39 41 41 41 41 41 41 41 41 41 42 42 43 43 43 42 42 41 41 40 40 41 41 41 42 43 44 46 46 45 45
30 30 29 29 30 32 31 29 29 30 30 30 30 31 31 30 30 29 29 29 30 30 28 26 25 25 25 25 25 26 27 28 29 30 32 33 34 35 36 36 36 36 37 37 38 40 40 41 42 42 42 41 41 40 41 42 44 45 45 45 44 44 44 44 44 44 45 46 46 47 47 46 46 46 46 45 45 45 46 45 45 46 47 49 49 48
Wind_Direction
227 227 228 225 223 223 224 227 231 234 235 238 241 244 245 247 251 253 254 256 258 260 260 260 264 268 270 271 272 272 267 259 254 253 252 256 261 264 268 271 273 276 279 282 281 280 282 284 285 284 284 283 282 284 285 285 285 285 285 286 285 281 276 275 280 286 288 290 293 293 292 291 288 284 281 280 279 277 275 276 277 279 279 280 282 285
232 231 229 224 223 227 230 231 233 235 237 237 239 244 245 244 249 253 251 244 243 251 257 260 262 263 264 267 269 269 267 262 257 257 257 258 260 263 266 268 271 276 279 282 281 279 280 281 281 280 280 280 280 282 282 281 281 281 282 284 285 281 277 277 282 285 288 292 294 292 290 289 287 285 285 284 282 280 278 277 278 280 281 281 280 280
232 236 234 231 235 238 240 240 237 237 239 238 236 238 239 238 243 247 244 237 234 245 255 254 255 259 260 262 264 264 262 262 262 262 262 262 263 264 267 270 275 279 281 283 283 279 280 282 279 277 277 278 278 277 278 279 280 280 281 282 282 281 278 279 282 286 289 291 290 289 288 287 287 287 288 287 285 285 286 284 282 282 283 283 280 279
224 236 238 238 242 242 243 245 243 240 242 241 236 235 238 236 238 241 241 240 238 243 252 251 248 252 254 256 259 261 262 263 265 265 265 268 271 271 273 277 279 280 280 281 283 282 282 284 280 276 275 275 275 274 275 277 278 279 280 281 282 281 279 279 282 286 288 286 285 285 286 285 286 289 290 290 291 292 291 287 285 282 281 279 277 275
229 237 240 240 241 239 240 241 241 242 243 244 240 237 240 240 240 245 248 249 246 244 246 252 256 255 251 250 252 256 261 264 267 269 272 274 275 276 275 274 274 274 275 278 281 284 286 286 281 275 273 272 273 273 274 275 276 276 278 280 281 281 281 280 281 283 283 282 282 282 283 283 284 287 289 290 294 295 290 286 284 279 276 276 275 275
232 237 239 238 234 231 230 231 236 240 241 243 243 241 242 243 243 246 247 248 247 246 244 246 261 264 255 252 251 252 257 262 265 266 267 269 272 275 275 275 275 273 275 279 283 286 287 284 279 274 273 272 272 273 273 273 273 273 274 276 278 280 281 281 280 280 280 281 282 281 281 282 283 283 286 289 290 287 283 282 281 279 278 278 278 278
227 230 232 229 228 227 224 227 235 237 234 236 241 242 240 239 241 241 238 235 235 240 241 235 246 269 267 258 249 245 250 255 256 257 263 273 279 282 284 284 283 281 283 288 288 286 281 276 273 272 270 269 270 271 271 271 272 272 272 272 274 276 278 278 278 277 278 279 280 280 279 279 279 280 284 286 284 280 277 275 276 280 282 282 281 280
224 223 224 223 226 228 225 227 231 231 228 231 238 241 239 236 237 238 233 226 229 239 238 223 235 266 269 258 245 242 251 256 259 267 274 280 284 286 286 284 284 286 289 289 283 276 272 269 266 266 262 260 264 266 266 267 269 270 270 270 269 271 273 274 276 276 276 277 277 277 277 276 277 279 282 282 280 278 275 274 275 279 282 282 281 280
226 222 221 220 221 225 226 228 231 228 224 226 233 235 234 233 234 236 234 226 226 239 244 227 224 257 269 261 259 261 265 267 270 276 281 283 286 287 286 287 288 287 287 285 281 275 270 268 265 262 258 255 257 259 261 263 265 267 268 269 269 268 269 270 272 273 274 276 277 276 275 275 275 276 277 277 276 276 275 275 277 279 281 281 278 276
226 226 226 224 221 222 226 229 233 232 222 221 226 222 214 215 219 225 229 226 219 227 244 234 223 238 266 266 266 265 266 275 282 285 289 291 291 290 289 295 298 288 284 292 293 287 279 278 273 265 261 258 257 258 259 261 263 264 265 267 268 268 267 267 268 270 272 274 275 276 275 274 273 272 272 273 274 275 276 277 279 280 280 278 275 272
225 227 226 227 224 224 228 229 229 226 218 215 215 206 195 194 198 201 206 208 202 221 242 239 233 236 259 277 265 261 268 286 297 293 295 297 298 300 299 301 299 283 279 287 287 282 279 283 278 270 268 266 263 261 260 260 262 263 264 265 266 267 267 267 267 268 269 270 271 273 274 273 271 269 269 270 272 274 275 276 278 278 277 275 273 270
225 224 220 223 223 222 221 217 213 209 207 205 195 190 193 189 194 202 203 202 192 228 238 240 241 234 231 244 244 259 280 289 291 285 285 287 296 305 304 298 285 269 273 280 281 275 275 283 280 274 275 273 266 263 260 260 261 263 265 265 266 266 265 264 265 265 266 267 268 270 271 271 270 267 267 268 269 271 272 274 274 274 274 273 271 269
222 225 224 224 222 216 212 211 214 217 218 215 205 204 215 214 216 221 207 210 213 233 232 237 243 229 237 255 260 267 275 276 276 272 265 269 282 292 289 274 249 250 274 279 274 271 272 278 277 273 274 272 265 261 260 260 262 263 264 266 267 267 266 266 266 266 267 268 269 269 270 270 269 266 265 265 266 267 268 270 270 270 271 271 270 268
214 224 224 221 218 215 214 214 215 216 219 222 221 221 216 191 158 192 190 330 237 235 234 236 243 233 247 266 271 269 269 271 274 276 276 275 273 266 261 253 246 257 276 274 264 264 267 268 268 266 266 263 259 258 257 258 259 261 262 263 265 266 267 268 268 268 269 269 269 270 270 270 269 267 266 265 265 265 266 268 268 269 270 271 271 270
196 208 213 215 218 217 217 219 219 221 223 225 227 225 218 207 198 187 187 176 175 225 225 209 215 217 218 252 266 255 237 275 295 290 287 287 277 253 242 242 250 259 265 266 259 254 256 258 257 256 255 253 253 255 256 256 256 256 258 260 262 264 265 267 268 268 268 267 267 268 269 268 268 267 267 267 267 267 268 269 270 271 272 273 274 274
200 204 211 218 224 223 221 220 222 227 228 229 228 222 219 219 222 226 219 199 179 186 217 199 206 229 229 226 219 203 214 315 314 285 269 278 275 254 243 243 250 251 251 267 262 246 246 250 246 242 245 249 251 254 257 258 257 256 256 258 259 261 262 264 265 266 266 266 266 266 267 267 267 268 269 269 269 270 271 272 273 275 275 276 276 277
202 211 217 218 220 225 227 224 223 224 222 219 212 208 214 220 219 219 219 197 176 184 240 228 233 242 248 254 251 249 261 284 305 280 252 279 268 254 259 265 261 254 258 263 248 239 241 241 238 237 243 252 254 256 259 261 264 264 261 261 262 263 265 265 266 267 267 268 268 267 268 268 270 271 272 273 274 274 274 275 276 278 278 279 279 279
202 206 217 219 219 222 225 227 227 227 224 214 206 208 213 213 213 213 201 152 168 227 247 233 240 241 238 256 262 261 266 272 266 145 76 350 311 283 292 296 277 255 255 249 234 233 239 240 238 241 248 256 258 258 259 262 268 272 271 270 269 269 270 270 271 271 271 271 271 272 272 272 273 273 274 275 276 275 275 276 277 277 277 278 277 277
208 200 209 220 224 221 215 214 215 217 221 220 221 223 215 199 202 205 194 171 187 208 251 229 239 242 236 250 263 265 265 261 243 233 269 281 277 283 290 283 262 246 242 236 231 237 245 243 243 251 258 259 257 257 260 263 268 275 278 277 275 274 273 274 275 275 275 275 274 274 274 275 275 275 276 276 276 276 276 276 276 276 276 276 274 274
213 207 202 212 218 214 204 205 206 204 209 215 222 225 218 213 211 201 197 202 200 189 226 221 216 236 247 256 265 268 265 258 250 255 266 270 264 264 268 255 241 253 252 235 234 246 252 250 251 262 270 266 260 259 262 266 270 274 279 279 277 275 274 274 276 277 278 278 277 276 275 275 275 275 275 275 275 276 276 276 275 275 276 275 274 274
212 213 209 202 206 205 200 204 210 208 203 203 206 207 209 210 208 203 205 206 202 165 198 236 225 242 255 264 267 268 269 263 258 263 265 259 249 247 247 237 233 248 251 239 240 248 255 263 266 269 272 269 263 260 262 270 273 276 280 280 278 275 273 272 272 273 275 276 277 277 277 276 275 274 274 274 274 274 275 275 274 275 274 274 274 273
209 212 209 195 195 202 208 216 220 217 212 210 209 207 208 205 195 187 201 203 206 211 204 202 245 251 255 264 265 266 270 255 230 233 247 239 234 234 230 224 226 233 237 240 246 251 259 268 271 272 271 267 263 259 262 269 275 278 279 279 277 275 273 273 274 273 272 272 273 274 276 277 277 277 277 277 276 276 276 275 275 275 274 274 273 272
208 210 205 195 199 205 212 218 216 217 221 222 219 215 213 207 199 194 191 197 204 212 217 209 235 253 252 255 261 264 258 219 195 195 220 225 219 217 208 207 213 218 222 229 238 249 260 266 268 270 269 266 263 261 262 267 274 278 278 278 277 275 275 277 279 281 280 278 277 276 276 276 277 278 279 279 280 280 279 278 278 278 277 277 275 273
203 206 198 190 201 206 209 215 214 216 220 218 217 217 217 215 211 208 207 205 202 203 211 206 218 249 250 250 254 255 242 217 206 210 226 234 225 217 208 208 211 214 222 230 238 247 255 262 267 271 271 268 265 263 263 266 271 276 278 279 280 280 281 283 283 284 285 284 283 282 280 280 279 279 279 279 279 280 281 281 281 280 279 279 277 275
200 201 192 179 182 199 204 213 211 209 214 217 220 221 221 220 215 211 210 210 205 203 207 202 217 242 248 247 242 245 240 231 224 221 228 238 238 230 222 221 224 229 239 247 255 260 262 267 273 278 279 275 270 266 266 268 271 274 278 281 283 284 286 287 287 287 287 287 287 286 286 284 283 282 281 281 281 280 280 281 281 281 280 279 278 275
204 200 194 186 175 186 195 201 203 204 209 216 220 220 218 216 211 207 203 198 195 204 208 206 219 233 238 230 228 237 238 234 230 226 228 234 237 234 230 231 235 242 250 258 267 276 280 281 284 285 285 282 278 276 274 274 276 278 279 283 286 287 287 287 287 287 287 289 289 289 290 288 287 285 283 283 282 282 281 280 279 280 280 280 279 276
210 208 207 204 203 206 207 208 209 208 205 206 212 213 212 212 210 205 197 193 197 203 207 212 220 228 231 227 228 233 231 231 233 228 225 226 229 230 229 232 240 248 259 268 275 281 285 287 289 289 287 285 283 283 284 283 283 282 282 285 288 290 290 289 288 288 288 289 289 290 291 291 290 288 286 284 282 281 281 280 279 278 278 278 278 276
212 210 212 213 213 215 216 216 214 212 210 210 212 211 208 207 207 204 202 207 207 201 207 217 219 225 232 230 231 235 235 236 237 233 229 225 226 230 234 240 250 259 267 274 277 281 284 287 290 288 286 287 288 288 288 289 289 288 287 289 291 293 292 292 291 290 290 290 290 291 291 291 291 290 289 287 285 282 279 278 277 276 276 276 277 276
214 213 214 216 216 215 215 218 216 212 214 216 212 208 205 203 204 206 210 214 211 207 218 224 221 227 234 233 236 241 242 242 239 238 239 236 236 240 246 254 261 266 270 276 280 282 287 292 295 295 293 294 294 292 291 290 290 291 292 293 294 294 294 294 293 292 292 291 292 292 291 291 291 290 289 288 287 285 281 278 276 275 274 275 275 275
215 219 219 219 219 217 215 219 219 212 211 211 211 210 207 205 206 210 214 217 216 219 227 231 230 233 237 240 245 247 249 249 244 241 244 249 252 257 262 267 269 271 277 283 286 289 293 296 298 299 299 297 295 294 293 293 292 292 292 293 294 295 295 295 294 293 293 293 293 293 292 291 291 290 290 289 287 286 283 280 278 276 275 274 273 273
211 217 219 217 216 216 218 224 228 223 213 209 210 211 208 205 206 210 215 218 219 223 230 233 234 237 239 244 248 248 246 247 247 246 249 257 266 272 275 275 277 282 286 287 289 291 294 295 295 296 297 296 295 294 293 293 293 292 291 291 292 294 295 295 295 294 293 293 294 294 293 293 292 291 291 289 287 286 283 281 278 276 276 275 274 273
206 210 213 209 206 209 213 217 221 219 215 212 211 209 206 204 206 210 216 219 220 224 228 227 230 239 247 248 247 246 242 241 246 253 261 269 275 278 280 280 283 286 287 286 287 289 291 292 291 292 293 293 294 294 292 291 290 291 291 291 292 292 293 294 295 295 295 295 295 295 295 295 293 292 291 290 287 285 283 281 278 275 274 274 274 273
204 204 203 200 200 206 204 199 197 200 204 209 207 206 207 210 213 215 218 221 223 226 227 226 233 247 256 251 248 248 248 248 252 262 271 275 276 278 280 282 284 284 283 283 283 284 286 287 288 289 289 290 292 293 293 292 291 291 291 291 292 293 293 294 295 296 296 296 296 295 296 295 295 294 292 290 287 285 282 280 277 274 272 271 272 273
201 201 200 197 198 201 198 193 191 194 199 204 205 208 212 216 220 221 222 224 227 228 231 236 243 250 252 250 252 255 257 260 263 268 272 273 274 275 274 274 275 276 278 279 278 280 281 281 283 285 286 287 288 290 292 294 294 294 293 293 293 294 294 295 295 295 295 295 295 294 294 294 294 295 294 291 288 285 282 278 276 273 272 271 270 270
199 198 200 200 200 198 194 192 194 222 215 194 196 206 216 223 228 230 231 232 231 230 232 237 242 247 250 254 258 260 263 267 269 271 275 276 276 274 270 267 267 269 272 274 275 276 276 277 279 282 284 286 286 287 289 290 291 293 293 293 293 293 293 294 294 294 295 295 294 293 293 292 293 294 293 291 289 286 283 280 277 275 273 272 271 272
206 198 197 198 198 195 187 185 194 245 222 203 196 205 214 219 222 223 227 231 230 230 234 239 245 253 256 257 261 264 266 269 272 273 273 272 271 271 270 271 271 271 272 272 273 274 275 277 278 280 283 284 285 285 286 287 288 289 290 291 292 292 292 292 292 292 293 293 293 292 291 290 290 291 291 289 287 285 284 283 282 282 280 277 275 275
219 211 204 196 196 196 188 193 207 227 231 228 226 227 227 225 222 221 226 233 235 236 240 245 250 254 256 258 262 265 268 270 270 267 264 266 270 273 273 273 272 272 272 272 272 271 271 273 274 275 277 279 282 284 286 287 288 288 289 289 289 289 290 290 291 291 290 291 291 290 289 288 287 287 287 286 284 283 285 287 287 287 287 285 283 281
220 222 220 210 205 201 190 193 204 209 235 237 236 237 236 232 231 231 234 243 245 241 241 245 248 251 253 256 259 261 263 263 263 263 264 268 272 273 274 273 271 270 270 270 271 272 272 273 274 276 278 280 282 284 286 288 288 289 289 290 290 289 289 288 289 289 289 290 290 290 289 287 285 284 284 284 284 283 285 287 289 290 290 290 290 289
217 219 220 213 205 200 194 188 189 209 233 241 242 242 236 230 231 228 231 247 250 245 243 246 247 249 252 253 256 257 253 252 257 263 267 268 269 270 272 274 273 273 273 273 275 277 280 282 282 284 286 287 287 287 287 287 288 289 291 292 292 292 290 289 288 288 289 290 290 291 290 288 286 284 283 283 284 285 286 287 289 291 292 292 292 292
214 211 211 209 206 203 201 201 210 221 235 245 248 240 229 224 218 202 212 249 254 251 247 245 243 247 249 249 249 247 244 251 260 267 268 266 268 269 270 272 275 276 278 279 279 281 282 283 284 286 287 288 289 289 291 293 294 296 298 299 299 298 295 292 290 290 291 292 291 291 290 289 287 286 285 285 286 287 289 290 290 291 291 292 292 292
208 206 207 210 212 210 206 209 223 232 237 243 243 234 222 209 195 194 217 244 252 254 251 244 241 247 249 248 249 251 254 259 264 266 265 264 265 266 268 271 274 276 278 279 280 281 282 284 285 287 289 291 293 295 298 300 302 303 304 303 301 300 298 295 293 292 291 291 291 290 288 287 286 286 286 287 287 289 290 291 291 291 291 291 291 291
202 202 205 210 212 213 213 216 231 242 242 242 238 220 201 192 193 211 235 248 255 264 265 260 255 253 252 253 254 256 258 258 258 261 261 262 263 266 269 272 274 276 278 280 282 284 285 286 288 290 294 297 299 301 302 303 303 302 301 297 293 289 287 288 289 289 288 287 287 288 286 284 282 283 284 284 284 286 287 289 289 290 290 290 289 289
203 198 201 208 209 208 208 209 228 245 241 237 220 195 198 207 220 243 258 257 256 259 261 261 256 249 248 252 254 258 261 261 262 263 262 263 264 266 268 271 273 276 278 280 282 284 286 289 291 294 296 297 297 297 298 299 299 297 294 290 286 283 281 280 281 282 282 283 283 285 285 282 281 282 283 281 280 281 282 284 286 288 289 290 290 289
209 204 204 209 207 200 199 205 218 233 238 236 221 208 220 237 248 257 257 248 244 248 255 262 261 256 257 261 263 267 268 268 267 265 264 264 264 264 266 269 271 274 276 279 282 284 286 289 291 293 294 293 290 289 290 291 292 291 289 287 285 284 283 282 281 280 281 281 281 281 281 278 279 284 285 282 281 281 281 283 285 287 290 292 293 292
217 216 215 215 215 215 219 221 225 229 232 231 222 218 234 251 253 253 254 251 249 255 264 269 268 266 267 268 269 270 270 269 266 263 262 261 261 261 263 265 267 270 273 277 281 283 285 287 289 290 289 287 284 284 284 285 286 286 287 286 286 286 286 285 285 286 287 287 285 285 282 275 272 277 283 284 284 282 282 285 287 288 291 294 296 296
228 226 225 227 228 231 234 232 230 232 233 232 231 233 242 252 258 261 262 259 255 260 269 272 272 272 273 273 273 273 272 268 263 259 258 257 257 260 264 266 270 273 275 278 280 280 282 283 284 284 283 282 282 282 283 283 284 284 284 284 283 284 284 285 285 286 288 289 289 290 289 283 276 275 278 281 282 282 284 287 290 291 293 295 298 298
229 229 229 232 231 232 236 236 235 239 244 247 249 251 252 254 255 256 259 262 265 269 274 275 276 277 278 278 276 274 269 264 260 258 258 259 261 265 269 272 274 275 277 278 278 278 279 278 277 276 276 277 279 281 282 283 283 282 283 283 282 282 282 283 284 284 285 285 285 285 286 287 285 282 281 281 282 284 287 290 293 295 295 297 298 298
225 226 229 232 232 234 239 242 242 244 246 248 249 253 256 258 258 258 261 265 268 271 274 276 278 280 279 277 274 269 265 262 261 261 263 266 269 272 272 273 274 276 276 276 276 277 277 275 274 273 273 274 276 277 279 280 280 280 280 280 280 280 280 281 282 282 282 282 282 282 281 281 281 280 281 281 282 284 287 289 290 292 293 295 297 298
231 232 234 236 236 237 240 243 245 245 246 249 252 255 258 259 259 260 261 263 265 269 271 274 276 275 271 268 266 265 265 265 265 267 270 271 272 272 272 272 274 274 273 273 274 274 274 273 274 274 274 274 274 274 276 277 278 279 279 278 278 278 278 278 278 279 279 279 280 281 281 281 280 279 279 279 279 280 283 286 288 290 290 292 295 296
236 238 239 240 241 243 245 248 251 253 254 255 257 258 257 256 256 257 259 261 265 268 271 273 270 266 264 265 266 266 267 268 270 271 272 272 272 271 271 272 271 269 269 269 270 270 271 271 272 273 273 273 272 273 274 275 277 278 278 278 278 278 278 278 277 277 279 280 281 282 283 283 283 283 282 282 280 279 280 281 284 287 289 291 293 294
240 244 246 248 250 254 256 256 257 259 258 258 259 259 259 260 260 261 263 266 268 270 271 268 264 262 265 267 267 268 269 271 273 273 273 273 273 272 271 271 269 268 268 268 269 270 270 271 272 273 274 274 274 274 274 274 276 277 277 277 277 278 278 278 278 279 279 280 282 283 283 283 284 284 284 284 283 283 282 280 280 281 284 288 290 292
Height
3121 3123 3122 3122 3124 3127 3131 3134 3136 3139 3143 3144 3145 3145 3145 3145 3145 3147 3150 3152 3153 3152 3148 3149 3148 3147 3149 3150 3151 3152 3154 3154 3155 3156 3157 3158 3158 3158 3159 3159 3160 3160 3162 3164 3164 3164 3165 3165 3165 3164 3164 3164 3163 3163 3162 3162 3162 3161 3161 3161 3162 3162 3162 3161 3161 3161 3160 3160 3160 3159 3159 3159 3159 3158 3158 3157 3158 3158 3158 3158 3158 3157 3157 3157 3157 3157
3116 3115 3115 3118 3122 3127 3130 3134 3136 3138 3140 3141 3142 3142 3142 3143 3142 3145 3149 3150 3152 3150 3147 3148 3146 3145 3146 3147 3148 3149 3149 3150 3152 3153 3154 3154 3155 3156 3156 3156 3157 3158 3159 3160 3161 3161 3162 3162 3163 3162 3162 3161 3161 3161 3160 3159 3159 3159 3158 3158 3159 3159 3159 3159 3159 3158 3158 3158 3157 3156 3156 3156 3155 3155 3155 3155 3155 3155 3155 3156 3155 3155 3155 3155 3155 3155
3108 3106 3109 3114 3120 3126 3129 3132 3134 3136 3137 3139 3139 3140 3139 3140 3141 3144 3146 3148 3149 3148 3145 3146 3144 3142 3144 3145 3145 3145 3145 3147 3148 3150 3150 3151 3152 3153 3153 3154 3155 3155 3155 3156 3157 3158 3159 3159 3160 3159 3159 3159 3159 3158 3158 3157 3156 3156 3155 3155 3156 3156 3157 3157 3156 3156 3156 3156 3155 3154 3153 3153 3152 3152 3152 3152 3151 3152 3152 3153 3152 3152 3153 3152 3152 3152
3100 3099 3104 3111 3117 3122 3125 3129 3132 3133 3134 3135 3136 3137 3136 3138 3140 3141 3143 3145 3146 3145 3143 3144 3142 3139 3141 3141 3141 3142 3142 3144 3146 3147 3148 3149 3149 3150 3151 3152 3152 3152 3152 3153 3153 3154 3155 3155 3156 3156 3156 3155 3155 3155 3155 3155 3154 3153 3152 3152 3152 3153 3153 3154 3154 3153 3153 3153 3152 3151 3151 3150 3150 3149 3149 3149 3149 3150 3150 3149 3149 3150 3149 3149 3149 3149
3097 3099 3103 3109 3113 3117 3121 3124 3128 3130 3130 3131 3133 3133 3133 3136 3139 3139 3141 3142 3143 3142 3141 3142 3140 3135 3136 3138 3138 3140 3141 3141 3143 3144 3145 3145 3146 3147 3148 3148 3149 3149 3149 3150 3150 3151 3151 3151 3151 3151 3152 3151 3151 3151 3151 3151 3151 3150 3150 3149 3149 3149 3150 3150 3151 3150 3150 3149 3149 3149 3148 3148 3147 3147 3146 3146 3147 3147 3147 3147 3146 3146 3146 3145 3145 3145
3097 3099 3102 3106 3109 3112 3116 3119 3123 3126 3127 3128 3128 3129 3131 3134 3137 3137 3138 3139 3139 3138 3139 3142 3138 3130 3131 3135 3135 3138 3139 3138 3140 3141 3142 3142 3143 3144 3144 3145 3146 3146 3147 3147 3148 3148 3147 3146 3146 3146 3147 3147 3147 3147 3147 3147 3147 3147 3147 3147 3147 3146 3147 3147 3147 3147 3146 3145 3145 3145 3145 3145 3145 3144 3144 3144 3145 3144 3144 3144 3143 3142 3142 3142 3142 3142
3095 3097 3100 3103 3106 3109 3112 3114 3117 3122 3124 3125 3124 3126 3129 3132 3134 3134 3135 3136 3136 3135 3136 3139 3137 3130 3128 3132 3133 3135 3136 3136 3138 3139 3139 3140 3141 3141 3141 3142 3142 3143 3144 3144 3144 3144 3144 3143 3142 3142 3142 3142 3142 3143 3143 3143 3143 3143 3143 3144 3144 3144 3144 3144 3143 3142 3142 3142 3142 3141 3141 3141 3141 3141 3142 3142 3141 3141 3141 3141 3140 3140 3139 3139 3139 3139
3090 3094 3096 3100 3103 3105 3106 3108 3111 3116 3120 3122 3121 3123 3127 3128 3130 3131 3132 3133 3132 3133 3134 3134 3135 3131 3125 3127 3131 3133 3134 3134 3135 3136 3136 3137 3137 3138 3138 3138 3138 3138 3139 3140 3140 3140 3139 3139 3138 3138 3138 3137 3138 3138 3139 3139 3138 3138 3139 3139 3140 3140 3141 3140 3139 3139 3138 3138 3138 3138 3137 3137 3137 3138 3138 3138 3137 3137 3137 3137 3137 3137 3136 3136 3136 3135
3086 3088 3090 3095 3098 3100 3101 3104 3108 3113 3117 3120 3120 3121 3123 3125 3126 3127 3128 3129 3131 3132 3130 3130 3133 3130 3121 3122 3127 3129 3130 3131 3131 3132 3133 3133 3134 3134 3135 3135 3135 3135 3135 3136 3136 3136 3136 3135 3135 3134 3134 3133 3133 3133 3134 3134 3134 3134 3135 3135 3136 3136 3137 3136 3135 3134 3134 3134 3134 3134 3134 3134 3134 3134 3134 3134 3133 3133 3133 3133 3134 3133 3133 3133 3132 3132
3082 3085 3090 3094 3095 3098 3101 3104 3106 3110 3114 3117 3119 3119 3120 3122 3123 3124 3125 3127 3130 3130 3125 3125 3130 3127 3118 3118 3123 3125 3126 3127 3128 3128 3129 3129 3130 3131 3132 3133 3133 3133 3133 3133 3133 3133 3133 3132 3132 3130 3130 3129 3129 3129 3129 3129 3130 3130 3131 3131 3131 3132 3132 3131 3131 3130 3130 3131 3130 3130 3130 3130 3130 3130 3129 3129 3129 3129 3129 3129 3130 3130 3129 3129 3128 3128
3081 3085 3090 3091 3094 3099 3102 3103 3105 3108 3111 3114 3116 3117 3118 3118 3119 3121 3122 3123 3126 3124 3119 3120 3126 3125 3119 3116 3118 3121 3121 3122 3124 3124 3125 3126 3127 3128 3129 3130 3130 3130 3131 3130 3130 3129 3130 3129 3128 3126 3126 3126 3126 3126 3126 3126 3126 3126 3126 3127 3127 3127 3127 3127 3126 3126 3126 3126 3126 3126 3126 3125 3126 3126 3125 3124 3125 3125 3124 3125 3125 3125 3124 3124 3124 3124
3080 3083 3084 3086 3092 3097 3100 3100 3103 3106 3109 3110 3111 3113 3115 3116 3116 3118 3119 3120 3121 3117 3115 3118 3122 3123 3119 3113 3114 3117 3118 3120 3120 3121 3122 3123 3123 3125 3126 3127 3127 3128 3128 3127 3127 3126 3127 3126 3124 3123 3123 3123 3123 3122 3123 3123 3123 3123 3122 3122 3123 3123 3123 3122 3121 3121 3121 3122 3122 3122 3121 3121 3121 3121 3120 3120 3120 3121 3120 3120 3120 3120 3119 3119 3119 3119
3076 3077 3079 3084 3088 3091 3094 3096 3100 3104 3106 3106 3107 3109 3113 3116 3116 3116 3115 3116 3115 3113 3113 3116 3118 3118 3114 3109 3111 3114 3115 3117 3117 3117 3118 3119 3120 3122 3123 3124 3125 3125 3125 3125 3124 3124 3124 3123 3122 3121 3121 3120 3120 3119 3119 3119 3119 3119 3119 3119 3119 3119 3118 3118 3118 3117 3117 3117 3118 3118 3117 3117 3117 3116 3116 3116 3116 3116 3115 3115 3115 3114 3114 3114 3114 3115
3073 3075 3076 3080 3083 3085 3088 3090 3092 3094 3096 3098 3099 3101 3106 3110 3113 3114 3113 3113 3113 3113 3112 3114 3116 3115 3110 3107 3108 3110 3111 3113 3114 3114 3115 3115 3117 3119 3121 3122 3122 3123 3123 3122 3122 3122 3120 3120 3120 3119 3119 3118 3117 3117 3116 3116 3116 3116 3116 3116 3115 3115 3115 3115 3114 3114 3114 3114 3114 3114 3113 3113 3113 3112 3112 3111 3111 3111 3111 3110 3110 3110 3109 3109 3109 3110
3068 3068 3068 3072 3075 3078 3080 3083 3086 3087 3089 3091 3093 3096 3099 3101 3106 3109 3109 3110 3111 3111 3112 3114 3114 3111 3107 3105 3104 3106 3108 3110 3111 3112 3112 3113 3114 3116 3117 3118 3119 3121 3121 3120 3119 3119 3117 3117 3117 3117 3116 3116 3115 3115 3114 3113 3113 3113 3113 3113 3113 3112 3112 3112 3111 3111 3110 3110 3110 3110 3110 3109 3109 3108 3108 3107 3107 3107 3107 3106 3106 3105 3105 3105 3105 3105
3063 3063 3063 3068 3071 3072 3074 3079 3083 3086 3089 3090 3092 3095 3095 3097 3102 3104 3105 3105 3107 3109 3110 3111 3109 3106 3104 3103 3103 3104 3106 3107 3108 3108 3109 3110 3111 3112 3113 3114 3116 3118 3118 3118 3117 3115 3114 3114 3115 3114 3114 3114 3113 3113 3112 3111 3111 3111 3111 3110 3110 3110 3109 3109 3108 3108 3107 3107 3107 3106 3106 3106 3105 3105 3104 3104 3104 3104 3103 3102 3101 3101 3101 3101 3101 3100
3059 3061 3062 3065 3068 3069 3072 3076 3078 3081 3084 3085 3087 3089 3091 3095 3099 3102 3103 3103 3105 3107 3105 3104 3103 3102 3102 3101 3100 3103 3103 3105 3107 3106 3105 3107 3108 3110 3111 3112 3114 3115 3115 3114 3113 3111 3111 3112 3112 3112 3112 3112 3111 3111 3110 3109 3109 3108 3108 3108 3107 3107 3106 3106 3105 3105 3104 3104 3104 3103 3103 3103 3102 3101 3101 3101 3101 3100 3099 3098 3098 3098 3097 3097 3096 3096
3054 3058 3059 3061 3063 3066 3070 3075 3077 3079 3080 3080 3081 3085 3090 3095 3097 3099 3101 3102 3104 3104 3099 3097 3096 3097 3099 3096 3095 3099 3100 3103 3106 3104 3103 3105 3107 3108 3109 3110 3111 3111 3111 3110 3109 3110 3110 3111 3111 3111 3110 3110 3109 3109 3108 3108 3107 3106 3106 3106 3105 3105 3104 3103 3103 3102 3101 3101 3101 3100 3100 3099 3098 3098 3097 3097 3097 3096 3095 3095 3095 3094 3093 3093 3092 3091
3052 3056 3057 3058 3061 3064 3068 3071 3073 3074 3075 3077 3079 3083 3087 3090 3091 3092 3095 3096 3098 3099 3095 3092 3091 3093 3094 3091 3090 3094 3096 3099 3101 3100 3100 3102 3104 3105 3106 3107 3108 3109 3108 3108 3108 3109 3109 3109 3109 3108 3108 3107 3107 3106 3106 3105 3105 3104 3104 3103 3103 3102 3101 3101 3100 3099 3099 3098 3097 3097 3096 3095 3095 3094 3093 3093 3093 3092 3091 3091 3090 3089 3089 3088 3087 3086
3049 3052 3054 3055 3058 3061 3063 3064 3065 3067 3070 3075 3078 3081 3081 3082 3082 3082 3084 3086 3088 3091 3090 3089 3088 3087 3085 3085 3086 3089 3092 3095 3096 3096 3098 3099 3100 3101 3102 3103 3103 3105 3106 3106 3106 3107 3106 3106 3106 3106 3106 3105 3105 3104 3104 3103 3102 3102 3101 3101 3100 3099 3099 3098 3097 3096 3096 3095 3094 3093 3092 3092 3091 3090 3089 3089 3088 3088 3087 3087 3086 3085 3084 3083 3082 3081
3047 3048 3050 3053 3055 3057 3056 3055 3055 3058 3062 3067 3071 3072 3073 3075 3076 3077 3080 3082 3083 3086 3087 3087 3085 3081 3079 3081 3083 3085 3087 3091 3093 3093 3094 3095 3095 3096 3097 3098 3098 3099 3102 3103 3103 3103 3103 3103 3103 3103 3103 3103 3103 3102 3101 3101 3100 3099 3099 3098 3097 3096 3096 3095 3094 3093 3092 3092 3090 3089 3089 3088 3087 3086 3085 3085 3084 3084 3083 3083 3082 3081 3080 3079 3078 3077
3042 3043 3046 3048 3049 3050 3049 3050 3052 3054 3057 3060 3061 3061 3064 3067 3070 3074 3078 3079 3081 3082 3083 3084 3081 3076 3076 3079 3080 3082 3085 3087 3090 3090 3090 3091 3091 3092 3093 3094 3094 3095 3096 3097 3099 3099 3099 3099 3099 3099 3100 3100 3100 3099 3099 3098 3097 3097 3096 3095 3094 3093 3092 3091 3090 3090 3089 3088 3087 3086 3085 3084 3083 3082 3082 3081 3080 3080 3079 3079 3078 3077 3075 3074 3074 3072
3036 3038 3041 3043 3044 3046 3048 3050 3052 3055 3057 3059 3058 3059 3062 3064 3065 3068 3071 3073 3077 3079 3079 3081 3078 3071 3073 3077 3077 3080 3082 3084 3087 3088 3088 3089 3089 3090 3091 3091 3092 3092 3092 3093 3094 3095 3095 3094 3094 3095 3095 3096 3095 3095 3095 3095 3094 3093 3093 3091 3090 3089 3089 3088 3087 3086 3085 3085 3084 3082 3081 3080 3080 3079 3078 3077 3077 3076 3075 3074 3073 3072 3071 3070 3069 3068
3031 3033 3037 3040 3044 3045 3047 3049 3051 3054 3056 3057 3057 3058 3060 3061 3062 3064 3066 3069 3071 3072 3074 3078 3074 3068 3070 3075 3076 3077 3079 3081 3084 3085 3086 3087 3087 3087 3088 3088 3089 3089 3089 3089 3089 3090 3090 3089 3089 3091 3091 3091 3091 3090 3091 3090 3090 3089 3088 3088 3087 3086 3085 3084 3083 3083 3082 3081 3080 3079 3078 3077 3076 3075 3074 3074 3073 3072 3071 3070 3069 3068 3067 3066 3065 3064
3024 3026 3030 3036 3041 3043 3045 3047 3048 3050 3050 3049 3050 3053 3054 3057 3061 3063 3065 3066 3065 3066 3068 3070 3069 3066 3068 3072 3073 3072 3074 3078 3080 3082 3082 3082 3083 3084 3084 3085 3085 3085 3085 3084 3084 3085 3085 3086 3086 3086 3086 3085 3085 3085 3085 3085 3085 3085 3084 3083 3082 3082 3081 3080 3079 3079 3078 3077 3076 3075 3074 3073 3072 3071 3070 3069 3069 3068 3067 3066 3065 3064 3063 3062 3061 3060
3019 3021 3022 3025 3028 3031 3032 3031 3031 3034 3037 3039 3041 3045 3047 3051 3053 3055 3058 3059 3060 3062 3063 3063 3064 3065 3067 3068 3068 3068 3070 3073 3075 3077 3077 3078 3079 3080 3080 3081 3081 3081 3081 3081 3081 3081 3081 3082 3082 3082 3081 3080 3079 3080 3080 3080 3080 3079 3079 3079 3078 3077 3076 3075 3075 3074 3073 3072 3072 3071 3070 3069 3067 3066 3065 3064 3063 3063 3062 3061 3060 3059 3058 3057 3057 3056
3016 3016 3016 3017 3017 3018 3018 3018 3019 3023 3027 3030 3033 3037 3041 3044 3047 3050 3052 3053 3055 3058 3059 3059 3062 3064 3063 3064 3065 3065 3068 3070 3071 3072 3073 3073 3074 3075 3076 3077 3077 3077 3077 3078 3078 3077 3077 3077 3077 3077 3076 3075 3075 3075 3075 3075 3075 3074 3074 3074 3073 3072 3071 3070 3070 3069 3068 3067 3066 3066 3065 3064 3062 3061 3060 3059 3058 3057 3056 3056 3055 3054 3053 3052 3051 3051
3010 3010 3012 3014 3015 3016 3018 3019 3020 3021 3022 3024 3026 3030 3034 3039 3044 3047 3047 3048 3051 3055 3055 3056 3059 3060 3059 3059 3061 3063 3065 3067 3068 3069 3070 3071 3071 3071 3072 3073 3074 3074 3074 3074 3074 3073 3073 3073 3072 3071 3071 3071 3071 3070 3070 3070 3069 3069 3068 3068 3067 3067 3066 3065 3064 3063 3062 3062 3061 3060 3059 3058 3057 3056 3055 3054 3053 3052 3050 3050 3049 3048 3047 3047 3046 3046
3006 3007 3009 3011 3013 3015 3017 3018 3018 3019 3020 3021 3022 3024 3028 3034 3038 3040 3041 3044 3047 3049 3050 3052 3055 3054 3054 3055 3058 3060 3061 3062 3064 3066 3067 3067 3066 3067 3068 3069 3069 3070 3070 3070 3069 3069 3068 3066 3065 3065 3066 3067 3067 3066 3065 3064 3063 3063 3063 3062 3062 3061 3060 3059 3058 3057 3056 3056 3055 3054 3053 3052 3052 3051 3050 3049 3047 3046 3045 3044 3043 3042 3042 3041 3041 3040
3003 3004 3006 3009 3011 3012 3014 3015 3016 3017 3017 3019 3020 3022 3025 3029 3032 3035 3037 3041 3044 3045 3046 3048 3050 3049 3049 3052 3054 3056 3056 3056 3059 3061 3061 3061 3061 3062 3064 3064 3065 3065 3065 3064 3064 3063 3062 3061 3060 3061 3061 3061 3061 3061 3060 3059 3058 3058 3057 3056 3056 3055 3054 3054 3053 3052 3051 3050 3049 3048 3047 3046 3046 3045 3044 3043 3042 3041 3040 3039 3037 3036 3036 3035 3035 3034
2998 2999 3001 3006 3009 3010 3012 3013 3013 3013 3014 3015 3017 3020 3023 3027 3030 3033 3035 3038 3040 3041 3042 3044 3045 3044 3045 3048 3049 3051 3052 3052 3053 3053 3054 3055 3057 3058 3060 3060 3060 3060 3059 3059 3059 3057 3056 3056 3057 3056 3055 3055 3055 3055 3055 3054 3053 3052 3052 3051 3050 3049 3048 3048 3047 3046 3045 3044 3043 3041 3040 3040 3039 3038 3038 3037 3036 3035 3034 3033 3032 3031 3030 3029 3028 3028
2992 2995 2997 3001 3005 3006 3009 3011 3011 3011 3013 3014 3014 3017 3021 3024 3026 3028 3029 3031 3032 3033 3036 3039 3039 3038 3040 3042 3044 3046 3047 3047 3047 3048 3050 3052 3053 3054 3055 3055 3055 3055 3054 3054 3054 3053 3051 3052 3052 3051 3050 3049 3049 3049 3050 3049 3049 3048 3046 3046 3045 3044 3043 3042 3041 3040 3039 3038 3037 3035 3034 3033 3032 3032 3031 3030 3029 3028 3027 3027 3026 3025 3024 3024 3023 3021
2988 2990 2992 2996 2999 3002 3005 3007 3009 3010 3011 3009 3009 3013 3016 3018 3021 3022 3023 3024 3026 3028 3030 3031 3032 3033 3035 3038 3040 3042 3043 3043 3045 3046 3047 3048 3050 3050 3050 3050 3050 3049 3049 3049 3049 3049 3048 3047 3047 3046 3045 3045 3044 3043 3043 3044 3044 3043 3042 3041 3040 3038 3038 3036 3035 3034 3033 3032 3030 3029 3027 3026 3025 3024 3023 3023 3022 3022 3021 3020 3019 3018 3018 3017 3017 3016
2984 2987 2990 2993 2996 2999 3002 3005 3007 3007 3005 3003 3005 3010 3011 3012 3015 3016 3017 3019 3022 3023 3024 3025 3027 3031 3033 3035 3037 3038 3039 3040 3042 3043 3043 3044 3046 3046 3046 3046 3046 3045 3044 3045 3045 3045 3044 3043 3042 3041 3041 3040 3040 3039 3038 3037 3037 3037 3037 3036 3035 3034 3032 3031 3030 3029 3027 3026 3024 3023 3022 3020 3018 3017 3016 3015 3015 3014 3014 3013 3012 3011 3010 3010 3010 3009
2981 2984 2989 2991 2994 2997 2999 3003 3004 3002 3000 3001 3005 3008 3010 3011 3013 3014 3014 3017 3019 3020 3021 3023 3025 3028 3030 3032 3033 3035 3036 3037 3038 3038 3039 3039 3039 3040 3041 3042 3042 3041 3040 3041 3041 3040 3039 3039 3038 3037 3036 3036 3036 3035 3034 3033 3033 3032 3031 3030 3030 3029 3028 3026 3025 3023 3022 3020 3018 3017 3016 3014 3013 3012 3010 3009 3008 3007 3006 3005 3005 3004 3004 3004 3003 3003
2980 2982 2985 2989 2992 2995 2997 2999 2999 2998 2999 3002 3004 3005 3007 3009 3010 3011 3012 3013 3015 3017 3019 3021 3022 3024 3027 3028 3030 3031 3032 3033 3033 3033 3033 3033 3032 3034 3035 3036 3036 3036 3036 3036 3036 3036 3035 3035 3034 3033 3032 3031 3031 3031 3030 3029 3028 3027 3026 3025 3024 3024 3023 3022 3020 3019 3017 3015 3013 3012 3010 3009 3008 3007 3005 3004 3002 3001 3000 2999 2998 2997 2997 2997 2997 2996
2979 2981 2984 2987 2990 2992 2994 2995 2996 2997 2998 2999 2999 2999 3000 3001 3004 3007 3008 3009 3012 3015 3016 3017 3019 3021 3023 3025 3026 3027 3029 3029 3028 3027 3027 3027 3027 3028 3029 3030 3031 3031 3031 3031 3031 3031 3031 3030 3029 3029 3028 3026 3026 3025 3024 3024 3023 3022 3021 3020 3019 3019 3018 3016 3015 3014 3012 3011 3009 3007 3006 3004 3003 3002 3000 2999 2997 2996 2994 2993 2992 2991 2990 2990 2990 2990
2978 2980 2982 2985 2987 2989 2992 2993 2996 2997 2994 2990 2991 2993 2996 2999 3003 3007 3009 3006 3007 3010 3012 3013 3016 3017 3019 3021 3022 3023 3025 3023 3021 3021 3022 3023 3023 3022 3022 3023 3024 3025 3026 3026 3025 3025 3025 3025 3024 3023 3022 3022 3021 3020 3019 3018 3017 3016 3015 3014 3014 3013 3012 3011 3010 3008 3007 3005 3004 3002 3001 3000 2999 2997 2996 2994 2992 2991 2989 2988 2987 2986 2985 2984 2984 2983
2977 2979 2981 2983 2985 2986 2988 2989 2990 2990 2985 2984 2987 2991 2994 2998 3002 3007 3007 3000 2998 3004 3009 3010 3011 3013 3014 3016 3017 3019 3019 3017 3015 3017 3019 3019 3019 3018 3017 3017 3018 3018 3019 3020 3020 3019 3019 3018 3018 3017 3017 3016 3015 3015 3014 3013 3012 3011 3010 3009 3009 3008 3007 3006 3004 3003 3002 3000 2999 2998 2996 2995 2994 2993 2991 2990 2988 2986 2985 2983 2982 2981 2980 2979 2978 2978
2975 2977 2979 2980 2981 2982 2984 2984 2984 2983 2981 2982 2985 2987 2990 2994 2999 3004 3002 2993 2991 2999 3004 3004 3006 3008 3010 3011 3012 3013 3013 3012 3012 3014 3015 3015 3015 3014 3013 3012 3012 3012 3013 3014 3014 3014 3014 3013 3013 3012 3012 3011 3010 3009 3009 3008 3006 3005 3004 3004 3003 3002 3002 3000 2999 2998 2997 2995 2994 2993 2992 2991 2990 2988 2987 2985 2984 2982 2980 2979 2977 2976 2975 2974 2973 2972
2972 2974 2975 2976 2977 2979 2981 2981 2980 2979 2978 2980 2982 2983 2986 2991 2993 2993 2990 2988 2991 2996 2998 3000 3003 3004 3005 3006 3007 3007 3008 3008 3009 3010 3010 3010 3010 3009 3009 3008 3008 3008 3008 3008 3009 3009 3009 3008 3008 3007 3006 3006 3005 3004 3003 3002 3000 2999 2998 2998 2997 2997 2996 2996 2994 2993 2992 2991 2990 2989 2988 2987 2985 2984 2982 2981 2979 2978 2977 2975 2973 2971 2970 2969 2968 2967
2966 2969 2971 2972 2974 2976 2977 2979 2979 2975 2973 2976 2979 2981 2982 2984 2983 2983 2985 2989 2992 2993 2994 2996 2998 2999 3000 3001 3001 3002 3003 3003 3004 3004 3005 3005 3006 3005 3004 3004 3003 3003 3003 3003 3003 3003 3003 3002 3001 3001 3000 2999 2998 2998 2997 2996 2995 2994 2993 2992 2991 2991 2991 2990 2989 2988 2987 2986 2985 2984 2983 2982 2981 2979 2978 2977 2975 2974 2973 2971 2969 2967 2966 2965 2964 2962
2960 2964 2966 2966 2968 2972 2974 2977 2976 2970 2966 2970 2975 2978 2978 2977 2977 2981 2985 2988 2989 2989 2990 2992 2993 2994 2995 2995 2996 2997 2997 2998 2999 3000 3001 3001 3001 3001 3000 2999 2999 2998 2998 2998 2998 2998 2997 2996 2996 2995 2995 2994 2993 2993 2992 2991 2990 2989 2989 2988 2987 2986 2986 2985 2984 2983 2982 2980 2979 2978 2978 2977 2976 2975 2973 2972 2971 2970 2969 2968 2966 2964 2962 2961 2959 2958
2957 2958 2958 2959 2962 2965 2967 2967 2966 2963 2963 2968 2971 2974 2975 2975 2977 2980 2983 2984 2985 2987 2987 2988 2989 2990 2991 2992 2992 2993 2993 2994 2995 2996 2997 2997 2997 2997 2996 2995 2995 2994 2994 2993 2993 2993 2993 2992 2991 2991 2991 2990 2990 2989 2988 2987 2986 2985 2985 2984 2983 2982 2981 2980 2979 2978 2977 2976 2974 2973 2972 2972 2971 2970 2969 2968 2967 2966 2965 2964 2963 2961 2959 2957 2956 2954
2952 2952 2953 2955 2957 2959 2959 2960 2961 2962 2965 2968 2969 2971 2974 2974 2976 2977 2979 2980 2982 2983 2983 2985 2985 2986 2987 2988 2988 2988 2989 2989 2991 2992 2993 2994 2993 2993 2993 2992 2991 2990 2989 2989 2988 2988 2988 2987 2987 2987 2987 2986 2986 2985 2984 2983 2982 2981 2980 2979 2978 2977 2976 2975 2974 2973 2972 2971 2970 2968 2967 2967 2966 2965 2964 2964 2963 2962 2961 2960 2958 2957 2956 2954 2952 2950
2950 2952 2954 2955 2957 2958 2959 2959 2961 2963 2964 2966 2968 2970 2972 2972 2974 2975 2975 2976 2977 2978 2979 2980 2980 2981 2982 2983 2983 2983 2984 2985 2986 2988 2989 2989 2990 2989 2988 2987 2986 2985 2985 2984 2984 2984 2984 2983 2983 2983 2982 2982 2981 2980 2979 2978 2977 2976 2975 2974 2973 2973 2972 2971 2970 2969 2968 2967 2966 2964 2963 2962 2961 2960 2959 2959 2958 2957 2956 2955 2954 2952 2951 2949 2948 2946
2949 2951 2953 2954 2956 2957 2956 2956 2959 2961 2963 2965 2967 2967 2968 2970 2971 2972 2972 2973 2973 2974 2974 2974 2975 2976 2976 2977 2978 2978 2979 2980 2981 2982 2983 2984 2985 2984 2984 2983 2982 2981 2980 2980 2979 2979 2979 2979 2979 2979 2978 2978 2977 2976 2975 2973 2972 2971 2970 2970 2969 2968 2967 2967 2966 2965 2964 2963 2962 2961 2959 2958 2957 2956 2955 2954 2953 2952 2951 2950 2949 2947 2946 2944 2943 2941
2947 2950 2951 2951 2952 2954 2953 2954 2957 2960 2961 2962 2963 2964 2966 2967 2968 2969 2969 2969 2969 2969 2969 2969 2970 2971 2971 2972 2973 2973 2974 2975 2976 2976 2977 2978 2978 2978 2978 2978 2977 2977 2976 2975 2974 2974 2974 2974 2974 2974 2974 2974 2973 2972 2971 2969 2967 2966 2965 2964 2964 2963 2963 2962 2961 2960 2959 2958 2957 2956 2955 2954 2953 2952 2951 2950 2949 2947 2946 2945 2943 2942 2941 2939 2938 2936
2946 2947 2947 2947 2948 2950 2950 2951 2954 2956 2958 2959 2960 2961 2962 2963 2964 2965 2965 2965 2965 2965 2965 2966 2966 2967 2967 2968 2968 2969 2969 2970 2971 2971 2972 2973 2973 2974 2974 2973 2973 2973 2972 2971 2970 2969 2968 2968 2968 2968 2969 2969 2968 2967 2966 2965 2963 2961 2960 2959 2958 2957 2957 2956 2955 2954 2953 2952 2951 2950 2949 2948 2947 2946 2945 2944 2943 2942 2941 2940 2938 2936 2936 2935 2933 2931
2942 2942 2943 2945 2945 2946 2947 2950 2951 2953 2955 2956 2957 2958 2958 2959 2960 2960 2961 2961 2961 2961 2961 2962 2962 2962 2963 2963 2964 2965 2965 2965 2966 2967 2967 2968 2969 2969 2969 2969 2968 2968 2967 2966 2965 2964 2963 2962 2962 2962 2962 2962 2962 2961 2960 2959 2958 2956 2954 2953 2952 2951 2951 2950 2949 2948 2947 2945 2944 2943 2942 2941 2940 2939 2938 2937 2936 2936 2935 2935 2933 2931 2930 2929 2927 2926
2939 2939 2941 2942 2943 2943 2945 2948 2949 2949 2951 2952 2953 2954 2954 2955 2955 2956 2956 2957 2957 2957 2957 2958 2958 2958 2959 2959 2960 2960 2960 2961 2962 2962 2962 2963 2963 2963 2963 2963 2963 2963 2962 2961 2960 2959 2958 2957 2956 2956 2955 2955 2954 2954 2953 2953 2952 2950 2948 2946 2946 2945 2944 2943 2943 2942 2940 2939 2937 2936 2935 2934 2933 2932 2931 2930 2929 2928 2927 2927 2927 2926 2925 2923 2921 2919